Ellsworth Air Force Base, SD

1:16 AM MST on February 14, 2016 (GMT -0700)
Ellsworth Air Force Base

Weather History for KRCA - March, 2013

Change the Weather History Date:

Thursday, March 21, 2013

  Actual Average Record
Temperature  
Mean Temperature 30 °F -  
Max Temperature 44 °F 45 °F 72 °F (2009)
Min Temperature 17 °F 25 °F 0 °F (2002)
Degree Days  
Heating Degree Days 35    
Moisture  
Dew Point 22 °F    
Average Humidity 80    
Maximum Humidity 94    
Minimum Humidity 43    
Precipitation  
Precipitation 0.04 in - - ()
Sea Level Pressure  
Sea Level Pressure 29.85 in    
Wind  
Wind Speed 11 mph (NE)    
Max Wind Speed 20 mph    
Max Gust Speed 26 mph    
Visibility 6 miles    
Events Snow    
Averages and records for this station are not official NWS values.
T = Trace of Precipitation, MM = Missing Value Source: NWS Daily Summary

Daily Weather History Graph

Daily Weather History Graph

Search for Another Location

Airport or City:

Trip Planner

Search our weather history database for the weather conditions in past years. The results will help you decide how hot, cold, wet, or windy it might be!

Date:

Astronomy

Mar. 21, 2013 Rise Set
Actual Time 6:53 AM MDT 7:06 PM MDT
Civil Twilight 6:24 AM MDT 7:35 PM MDT
Nautical Twilight 5:50 AM MDT 8:09 PM MDT
Astronomical Twilight 5:15 AM MDT 8:44 PM MDT
Moon 1:28 PM MDT (3/21) 3:27 AM MDT (3/21)
Length of Visible Light 13h 11m
Length of Day
12h 13m
Waxing Gibbous, 69% of the Moon is Illuminated
Mar 21
Waxing Gibbous
Mar 27
Full
Apr 2
Last Quarter
Apr 10
New
Apr 18
First Quarter

Hourly Weather History & Observations

Time (MDT) Temp. Windchill Dew Point Humidity Pressure Visibility Wind Dir Wind Speed Gust Speed Precip Events Conditions
12:55 AM 27.0 °F 17.3 °F 13.6 °F 57% 29.82 in 10.0 mi ESE 10.4 mph - N/A   Overcast
1:55 AM 23.5 °F 13.0 °F 12.9 °F 64% 29.80 in 10.0 mi SE 10.4 mph - N/A   Scattered Clouds
2:55 AM 21.2 °F 10.9 °F 12.2 °F 68% 29.79 in 10.0 mi SE 9.2 mph - N/A   Clear
3:55 AM 20.7 °F 8.8 °F 12.0 °F 69% 29.77 in 10.0 mi ESE 11.5 mph - N/A   Clear
4:55 AM 19.0 °F 10.0 °F 11.7 °F 73% 29.75 in 10.0 mi ESE 6.9 mph - N/A   Clear
5:55 AM 18.9 °F 9.8 °F 11.3 °F 72% 29.75 in 10.0 mi ESE 6.9 mph - N/A   Clear
6:55 AM 17.6 °F 8.2 °F 11.7 °F 78% 29.75 in 10.0 mi ESE 6.9 mph - N/A   Clear
7:55 AM 19.0 °F 7.5 °F 12.6 °F 76% 29.76 in 10.0 mi ESE 10.4 mph - N/A   Clear
8:55 AM 22.5 °F 12.4 °F 15.1 °F 73% 29.76 in 10.0 mi SE 9.2 mph - N/A   Partly Cloudy
9:55 AM 27.7 °F 19.6 °F 18.1 °F 67% 29.74 in 10.0 mi SE 8.1 mph - N/A   Clear
10:55 AM 36.7 °F 29.9 °F 21.6 °F 54% 29.71 in 10.0 mi ESE 9.2 mph - N/A   Partly Cloudy
11:55 AM 39.4 °F 34.5 °F 22.3 °F 50% 29.71 in 10.0 mi ESE 6.9 mph - N/A   Mostly Cloudy
12:55 PM 43.0 °F 36.4 °F 23.0 °F 45% 29.70 in 10.0 mi SE 12.7 mph 19.6 mph N/A   Overcast
1:55 PM 43.5 °F 36.7 °F 22.6 °F 44% 29.69 in 10.0 mi East 13.8 mph 20.7 mph N/A   Scattered Clouds
2:55 PM 43.3 °F 37.2 °F 21.9 °F 43% 29.70 in 10.0 mi ESE 11.5 mph - N/A   Overcast
3:55 PM 42.4 °F 36.5 °F 22.3 °F 45% 29.71 in 10.0 mi East 10.4 mph - N/A   Overcast
4:55 PM 36.0 °F 25.3 °F 20.5 °F 53% 29.75 in 10.0 mi East 19.6 mph 26.5 mph N/A   Overcast
5:55 PM 33.8 °F 22.8 °F 20.1 °F 57% 29.79 in 10.0 mi East 18.4 mph - N/A   Overcast
6:50 PM 30.2 °F 21.3 °F 24.8 °F 80% 29.85 in 10.0 mi NE 10.4 mph - N/A   Overcast
6:52 PM 30.2 °F 20.8 °F 24.8 °F 80% 29.85 in 10.0 mi NE 11.5 mph - N/A   Overcast
6:54 PM 30.2 °F 20.8 °F 24.8 °F 80% 29.85 in 5.0 mi NNE 11.5 mph - N/A Snow Light Snow
6:55 PM 30.9 °F 21.7 °F 25.2 °F 79% 29.86 in 5.0 mi NNE 11.5 mph - 0.00 in Snow Light Snow
6:57 PM 30.2 °F 20.8 °F 24.8 °F 80% 29.86 in 3.0 mi NNE 11.5 mph - N/A Snow Light Snow
7:05 PM 30.2 °F 21.3 °F 26.6 °F 86% 29.87 in 3.0 mi NNE 10.4 mph - N/A Snow Light Snow
7:31 PM 28.4 °F 19.7 °F 26.6 °F 93% 29.90 in 7.0 mi North 9.2 mph - N/A Snow Light Snow
7:55 PM 27.5 °F 16.3 °F 25.7 °F 93% 29.90 in 2.0 mi North 13.8 mph - 0.00 in Snow Light Snow
8:00 PM 26.6 °F 15.7 °F 24.8 °F 93% 29.90 in 2.0 mi NNW 12.7 mph - N/A Snow Light Snow
8:04 PM 26.6 °F 15.2 °F 24.8 °F 93% 29.90 in 1.8 mi North 13.8 mph - N/A Snow Light Snow
8:07 PM 26.6 °F 15.2 °F 24.8 °F 93% 29.90 in 1.0 mi North 13.8 mph - N/A Snow Light Snow
8:14 PM 26.6 °F 15.2 °F 24.8 °F 93% 29.91 in 1.2 mi North 13.8 mph - N/A Snow Light Snow
8:23 PM 26.6 °F 15.7 °F 24.8 °F 93% 29.91 in 1.5 mi North 12.7 mph - N/A Snow Light Snow
8:27 PM 26.6 °F 15.2 °F 24.8 °F 93% 29.91 in 1.8 mi North 13.8 mph - N/A Snow Light Snow
8:36 PM 26.6 °F 15.2 °F 24.8 °F 93% 29.90 in 1.8 mi North 13.8 mph - N/A Snow Light Snow
8:54 PM 26.6 °F 15.2 °F 24.8 °F 93% 29.91 in 2.0 mi North 13.8 mph - N/A Snow Light Snow
8:55 PM 26.6 °F 15.7 °F 24.8 °F 93% 29.91 in 2.0 mi North 12.7 mph - 0.03 in Snow Light Snow
9:04 PM 26.6 °F 15.7 °F 24.8 °F 93% 29.92 in 2.0 mi NNW 12.7 mph - N/A Snow Light Snow
9:08 PM 26.6 °F 15.2 °F 24.8 °F 93% 29.92 in 2.5 mi North 13.8 mph - N/A Snow Light Snow
9:11 PM 26.6 °F 15.7 °F 24.8 °F 93% 29.92 in 3.0 mi North 12.7 mph - N/A Snow Light Snow
9:12 PM 26.6 °F 15.2 °F 24.8 °F 93% 29.92 in 3.0 mi North 13.8 mph - N/A Snow Light Snow
9:33 PM 26.6 °F 16.2 °F 24.8 °F 93% 29.93 in 3.0 mi North 11.5 mph - N/A Snow Light Snow
9:39 PM 26.6 °F 15.7 °F 24.8 °F 93% 29.93 in 3.0 mi North 12.7 mph - N/A Snow Light Snow
9:41 PM 26.6 °F 16.2 °F 24.8 °F 93% 29.93 in 2.5 mi North 11.5 mph - N/A Snow Light Snow
9:45 PM 26.6 °F 16.8 °F 24.8 °F 93% 29.92 in 3.0 mi North 10.4 mph - N/A Snow Light Snow
9:54 PM 26.6 °F 16.8 °F 24.8 °F 93% 29.93 in 4.0 mi North 10.4 mph - N/A Snow Light Snow
9:55 PM 25.9 °F 16.0 °F 24.3 °F 94% 29.93 in 4.0 mi North 10.4 mph - 0.01 in Snow Light Snow
10:05 PM 26.6 °F 17.5 °F 24.8 °F 93% 29.92 in 4.0 mi NNE 9.2 mph - N/A Snow Light Snow
10:08 PM 26.6 °F 17.5 °F 24.8 °F 93% 29.93 in 5.0 mi North 9.2 mph - N/A Snow Light Snow
10:55 PM 25.5 °F 15.5 °F 23.7 °F 93% 29.91 in 5.0 mi North 10.4 mph - 0.00 in Snow Light Snow
11:11 PM 24.8 °F 15.3 °F 23.0 °F 93% 29.91 in 4.0 mi NNE 9.2 mph - N/A Snow Light Snow
11:37 PM 24.8 °F 16.9 °F 23.0 °F 93% 29.91 in 5.0 mi North 6.9 mph - N/A Snow Light Snow
11:55 PM 25.0 °F 16.3 °F 23.2 °F 93% 29.91 in 5.0 mi NE 8.1 mph - 0.00 in Snow Light Snow